Saipan, MP

12:14 AM ChST on September 20, 2017 (GMT +1000)
Saipan International

Weather History for PGSN - June, 2013

Change the Weather History Date:

Thursday, June 27, 2013

  Actual Average Record
Temperature  
Mean Temperature 78 °F -  
Max Temperature 84 °F 85 °F 91 °F (2016)
Min Temperature 73 °F 76 °F 73 °F (2013)
Cooling Degree Days 14    
Growing Degree Days 28 (Base 50)    
Moisture  
Dew Point 75 °F    
Average Humidity 89    
Maximum Humidity 100    
Minimum Humidity 74    
Precipitation  
Precipitation 0.67 in - - ()
Sea Level Pressure  
Sea Level Pressure 29.91 in    
Wind  
Wind Speed 10 mph (East)    
Max Wind Speed 24 mph    
Max Gust Speed 34 mph    
Visibility 9 miles    
Events Rain    
Averages and records for this station are not official NWS values.
T = Trace of Precipitation, MM = Missing Value Source: NWS Daily Summary

Daily Weather History Graph

Daily Weather History Graph

Search for Another Location

Airport or City:

Trip Planner

Search our weather history database for the weather conditions in past years. The results will help you decide how hot, cold, wet, or windy it might be!

Date:

Astronomy

Jun. 27, 2013 Rise Set
Actual Time 5:49 AM ChST 6:50 PM ChST
Civil Twilight 5:25 AM ChST 7:14 PM ChST
Nautical Twilight 4:57 AM ChST 7:42 PM ChST
Astronomical Twilight 4:29 AM ChST 8:10 PM ChST
Moon 10:10 PM ChST (6/27) 9:26 AM ChST (6/27)
Length of Visible Light 13h 48m
Length of Day
13h 01m
Waning Gibbous, 82% of the Moon is Illuminated
Jun 27
Waning Gibbous
Jun 30
Last Quarter
Jul 8
New
Jul 16
First Quarter
Jul 23
Full

Hourly Weather History & Observations

Time (ChST) Temp. Heat Index Dew Point Humidity Pressure Visibility Wind Dir Wind Speed Gust Speed Precip Events Conditions
12:54 AM 77.0 °F - 75.9 °F 96% 29.93 in 4.0 mi ESE 8.1 mph - 0.02 in Rain Heavy Rain
1:54 AM 77.0 °F - 75.0 °F 94% 29.93 in 9.0 mi East 13.8 mph 21.9 mph 0.04 in   Scattered Clouds
1:58 AM 75.2 °F - 73.4 °F 94% 29.87 in 1.8 mi East 24.2 mph 28.8 mph 0.00 in Rain Heavy Rain
2:05 AM 75.2 °F - 73.4 °F 94% 29.87 in 3.0 mi NE 4.6 mph 34.5 mph 0.43 in Rain Heavy Rain
2:54 AM 73.9 °F - 73.0 °F 97% 29.92 in 10.0 mi NE 5.8 mph - 0.53 in   Partly Cloudy
3:54 AM 73.9 °F - 71.1 °F 91% 29.90 in 10.0 mi ENE 10.4 mph - N/A   Clear
4:54 AM 75.9 °F - 73.9 °F 94% 29.92 in 8.0 mi NNE 8.1 mph - 0.00 in Rain Light Rain
5:16 AM 75.2 °F - 75.2 °F 100% 29.85 in 10.0 mi NE 9.2 mph - 0.01 in   Mostly Cloudy
5:40 AM 75.2 °F - 73.4 °F 94% 29.85 in 10.0 mi NE 8.1 mph - 0.01 in   Partly Cloudy
5:54 AM 75.0 °F - 73.9 °F 96% 29.92 in 10.0 mi East 11.5 mph 16.1 mph 0.01 in   Clear
6:54 AM 77.0 °F - 73.9 °F 90% 29.92 in 10.0 mi ENE 11.5 mph - N/A   Clear
7:54 AM 79.0 °F - 72.0 °F 79% 29.93 in 10.0 mi East 12.7 mph - N/A   Clear
8:54 AM 82.0 °F 87.4 °F 73.0 °F 74% 29.92 in 10.0 mi East 9.2 mph - N/A   Clear
9:54 AM 82.0 °F 90.2 °F 77.0 °F 85% 29.92 in 10.0 mi ENE 12.7 mph - N/A   Partly Cloudy
10:54 AM 84.0 °F 92.6 °F 75.9 °F 76% 29.91 in 10.0 mi East 15.0 mph - N/A   Partly Cloudy
11:54 AM 84.0 °F 93.7 °F 77.0 °F 79% 29.93 in 10.0 mi East 12.7 mph - N/A   Scattered Clouds
12:54 PM 78.1 °F - 73.0 °F 84% 29.94 in 6.0 mi ESE 16.1 mph 26.5 mph 0.00 in Rain Light Rain
1:54 PM 81.0 °F 87.9 °F 77.0 °F 88% 29.91 in 10.0 mi East 10.4 mph - 0.05 in   Mostly Cloudy
2:16 PM 80.6 °F 86.2 °F 75.2 °F 84% 29.84 in 10.0 mi East 10.4 mph 21.9 mph 0.00 in Rain Light Rain
2:54 PM 82.0 °F 88.6 °F 75.0 °F 79% 29.90 in 10.0 mi ESE 10.4 mph - 0.00 in   Scattered Clouds
3:54 PM 82.9 °F 91.8 °F 77.0 °F 82% 29.88 in 10.0 mi East 10.4 mph 16.1 mph N/A   Scattered Clouds
4:54 PM 80.1 °F 85.4 °F 75.9 °F 87% 29.89 in 10.0 mi East 11.5 mph - 0.00 in   Mostly Cloudy
5:54 PM 78.1 °F - 75.9 °F 93% 29.90 in 10.0 mi Calm Calm - 0.02 in   Partly Cloudy
6:54 PM 78.1 °F - 75.9 °F 93% 29.90 in 10.0 mi East 4.6 mph - N/A   Scattered Clouds
7:54 PM 77.0 °F - 73.9 °F 90% 29.91 in 10.0 mi East 6.9 mph - N/A   Partly Cloudy
8:54 PM 78.1 °F - 75.0 °F 90% 29.91 in 10.0 mi East 8.1 mph - N/A   Clear
9:54 PM 79.0 °F - 75.0 °F 88% 29.92 in 10.0 mi East 8.1 mph - N/A   Clear
10:54 PM 78.1 °F - 75.9 °F 93% 29.94 in 10.0 mi East 6.9 mph - N/A   Scattered Clouds
11:54 PM 78.1 °F - 75.0 °F 90% 29.94 in 10.0 mi ENE 5.8 mph - N/A   Partly Cloudy